GPS IIA-10

operational
NORAD ID: 22581 Int'l Des: 1993-017 Owner: AFSMC Country: US Constellation: GPS
MEOCIRCULAR

About GPS IIA-10

Description loading...

Live Position

Loading 3D Globe...

Upcoming Passes

Altitude History

Altitude vs Time

uPlot chart will show altitude changes over time

Two-Line Element Set

1 22581U 93017A 26102.00479024 -.00000015 00000-0 00000+0 0 9991
2 22581 54.1981 300.5333 0003232 96.1801 85.0907 1.88946942 87937
Epoch: Apr 12, 2026 • Age: 17 hours

Current Status

Altitude 21282.7 km
Velocity 3.80 km/s
Sub-Earth Point -42.74°S, 161.03°E
Launch Date Mar 30, 1993
Age 33 years
Type navigation

Technical Details

Classification Payload
Mass 860.00 kg
Dry Mass 860.00 kg
Total Mass 1881.00 kg
Length 2.40 m
Diameter 1.80 m
Span 5.30 m
Shape Box + 2 Pan
Manufacturer RWISB
Bus Type GPS
Phase Status In Orbit
Owner/State AFSMC/US

Large Constellations

Loading constellations...